User: anonymous   Login
Location: Choisy
(48.7685°N, 2.4187°E)
Time: 05:02:47
(UTC+00:00)
Language:

CZ-2D R/B - Orbit

View from above orbital plane
View from above orbital plane
View from above satellite
View from above satellite

Ground track
Ground track

The orbit data is extracted from the following two-line orbital elements,

1 28738U 05024B   22017.58185752  .00002488  00000-0  14489-3 0  9993
2 28738  97.3546  30.9939 0011229 349.4275  10.6718 15.12857888908931
Epoch (UTC): 17 January 2022 13:57:52
Eccentricity: 0.0011229
inclination: 97.3546°
perigee height: 520 km
apogee height: 535 km
right ascension of ascending node: 30.9939°
argument of perigee: 349.4275°
revolutions per day: 15.12857888
mean anomaly at epoch: 10.6718°
orbit number at epoch: 90893

The dashed part of the orbit path shows where the satellite is in the earth's shadow,  

DLR